Snowfall_Accumulation
0.8 0.8 1.0 1.0 1.0 1.2 1.6 2.5 4.2 3.3 0.9 0.3 0.3 0.3 0.4 0.3 0.3 0.4 0.3 0.2 0.2 0.4 0.5 0.4 0.3 0.1 0.1 0.1 0.0 0.0 0.0 0.0 0.1 0.1 0.0 0.1 0.1 0.0
1.0 1.0 1.1 1.1 1.1 1.1 1.4 1.6 2.7 4.3 3.1 0.6 0.3 0.3 0.3 0.3 0.3 0.4 0.3 0.2 0.3 0.3 0.3 0.4 0.3 0.2 0.2 0.1 0.1 0.1 0.0 0.0 0.1 0.1 0.1 0.0 0.1 0.1
1.0 1.2 1.3 1.3 1.5 1.3 1.5 1.7 2.0 3.3 4.0 0.9 0.2 0.2 0.4 0.4 0.3 0.3 0.2 0.2 0.1 0.2 0.2 0.3 0.3 0.3 0.3 0.2 0.1 0.1 0.1 0.1 0.0 0.1 0.1 0.0 0.0 0.0
1.4 1.6 1.6 1.5 1.7 1.7 1.9 1.9 2.0 2.5 3.6 2.4 0.6 0.4 0.4 0.4 0.3 0.3 0.2 0.2 0.2 0.1 0.1 0.3 0.3 0.4 0.3 0.3 0.2 0.2 0.2 0.1 0.1 0.1 0.1 0.0 0.0 0.0
1.7 2.0 2.1 2.3 2.5 2.2 2.3 2.3 2.0 1.8 2.3 2.8 1.4 0.6 0.6 0.5 0.4 0.3 0.2 0.2 0.1 0.1 0.1 0.1 0.2 0.3 0.3 0.3 0.3 0.3 0.3 0.2 0.1 0.1 0.1 0.1 0.0 0.0
1.9 2.2 2.6 3.1 3.5 3.6 3.7 3.0 2.4 2.7 2.7 3.1 2.4 1.4 1.1 0.7 1.0 1.1 0.8 0.3 0.2 0.1 0.1 0.1 0.1 0.2 0.3 0.4 0.3 0.4 0.4 0.3 0.3 0.2 0.2 0.2 0.2 0.1
3.0 2.7 2.5 2.8 3.5 4.8 5.5 5.5 5.0 5.8 5.0 5.0 4.2 3.0 2.3 2.3 2.2 1.5 1.7 1.0 0.4 0.2 0.3 0.1 0.1 0.1 0.1 0.1 0.1 0.1 0.5 0.4 0.3 0.3 0.2 0.1 0.1 0.1
4.3 3.5 2.8 2.6 2.5 2.6 3.4 4.1 4.7 6.8 7.5 7.3 6.8 6.0 4.0 2.6 2.4 2.5 3.0 3.3 2.3 0.5 0.6 0.3 0.1 0.2 0.1 0.1 0.1 0.2 0.4 0.4 0.4 0.4 0.3 0.2 0.2 0.2
3.6 3.2 2.9 2.5 2.3 2.5 3.0 2.2 2.6 3.4 5.0 6.7 8.6 7.0 4.7 4.0 3.7 4.2 3.9 4.2 2.8 1.3 1.7 1.7 0.4 0.3 0.2 0.1 0.1 0.2 0.3 0.5 0.6 0.4 0.4 0.4 0.4 0.3
2.9 3.1 3.2 3.0 2.6 3.0 3.8 4.1 3.7 3.5 4.1 5.7 7.5 6.3 4.8 4.6 4.6 6.1 5.9 6.3 3.7 1.7 1.9 3.5 1.0 0.5 0.1 0.1 0.1 0.2 0.3 0.5 0.7 0.7 0.5 0.6 0.6 0.5
2.6 3.6 4.0 3.5 3.1 3.5 5.1 5.6 4.2 3.3 2.9 3.8 4.8 5.3 4.5 4.8 6.5 8.7 12.0 12.2 9.2 3.0 2.1 3.7 1.7 0.9 0.4 0.2 0.1 0.2 0.3 0.3 0.4 0.6 0.7 0.6 0.6 0.7
2.5 3.4 5.2 4.9 4.3 3.8 5.2 6.0 5.6 3.6 3.1 3.2 3.5 3.7 4.0 4.6 5.4 8.0 9.9 12.1 10.9 7.6 3.7 3.0 2.8 3.4 3.2 0.7 0.3 0.2 0.2 0.2 0.3 0.4 0.5 0.7 0.7 0.8
3.3 4.0 5.1 4.7 4.1 3.8 4.1 5.2 5.6 4.7 4.5 4.6 4.2 3.8 4.1 4.7 5.6 6.9 7.9 9.8 11.1 9.3 6.2 5.4 5.6 5.0 5.7 3.0 0.8 0.3 0.3 0.4 0.3 0.3 0.3 0.5 0.6 0.8
3.8 3.3 3.9 4.0 4.0 3.6 3.5 3.2 3.5 4.1 4.8 4.4 3.7 3.1 3.1 3.8 4.9 6.1 8.1 9.0 9.2 8.8 6.8 7.0 8.6 7.1 7.4 6.0 3.0 1.1 0.7 0.5 0.5 0.4 0.4 0.4 0.6 0.7
3.9 4.9 4.2 3.3 3.0 2.6 1.9 2.2 2.7 3.4 4.0 3.9 3.0 2.1 2.0 2.5 3.3 4.6 6.1 7.2 7.7 7.7 6.4 5.3 7.0 6.8 8.2 7.9 4.3 2.5 1.9 0.8 0.6 0.8 0.7 0.7 0.7 0.9
2.9 3.6 3.4 2.4 1.8 1.4 1.2 1.4 1.6 2.5 3.2 3.5 2.7 1.9 1.6 2.1 2.9 3.9 5.4 6.9 8.5 8.1 6.9 5.5 5.4 7.0 8.3 6.6 5.7 4.3 2.9 2.2 1.2 1.1 1.0 0.9 0.8 0.7
4.9 4.7 3.8 2.8 2.4 1.9 1.4 1.1 1.2 1.8 2.5 2.6 2.6 2.5 2.3 2.4 2.6 3.2 4.9 6.5 8.4 8.6 8.5 7.6 7.4 7.8 8.5 8.4 7.9 5.5 3.5 2.6 1.8 1.7 1.7 1.5 1.0 0.8
4.9 5.3 3.6 2.6 2.3 2.0 1.8 1.5 1.3 1.5 1.7 2.1 2.5 2.6 2.7 2.7 2.8 3.1 4.6 6.4 7.4 7.5 8.0 8.4 9.6 11.1 12.0 11.1 8.7 6.6 4.6 2.9 2.3 1.8 2.0 2.1 1.6 0.9
3.8 3.2 2.2 1.9 1.8 1.7 1.7 1.7 1.4 1.1 1.4 2.1 2.5 2.6 2.9 3.2 3.4 3.7 4.3 5.6 6.5 7.0 7.5 8.4 10.1 13.3 15.5 13.7 9.6 7.0 5.2 3.4 2.9 2.4 2.0 1.9 1.7 1.2
2.0 2.1 1.8 1.6 1.6 1.7 1.6 1.6 1.5 1.4 1.7 2.1 2.3 2.4 3.0 3.8 4.1 3.8 4.2 5.5 6.4 7.2 7.8 8.7 10.2 11.4 13.1 11.4 9.8 8.5 5.4 4.5 3.7 3.1 2.3 1.8 1.4 1.1
1.5 1.5 1.6 1.8 1.9 1.9 1.7 1.7 1.8 1.8 1.8 2.0 2.2 2.3 2.7 3.8 4.1 3.6 4.0 5.1 7.1 8.2 8.5 8.6 7.6 8.8 10.5 11.9 13.3 12.4 9.4 5.6 3.6 3.4 3.1 3.4 3.6 3.6
1.8 1.9 1.7 1.7 2.0 2.1 2.2 2.1 2.1 1.8 1.7 2.0 2.1 2.3 2.7 3.6 4.0 3.8 4.3 5.4 6.4 7.2 7.6 8.0 7.7 10.6 14.6 15.8 14.1 12.3 11.4 9.0 7.7 4.8 3.3 2.9 3.6 3.6
2.4 2.4 2.0 1.9 2.0 2.2 2.4 2.3 2.1 1.8 1.7 2.0 2.3 2.4 2.9 3.6 3.7 4.2 4.6 5.3 6.2 6.7 7.3 8.4 9.9 12.3 14.1 14.1 13.8 12.5 10.9 8.8 8.6 8.4 8.0 3.3 2.1 1.8